sat.trackr.live / text

‹ back to catalog

TEVEL2-8

NORAD 63239 · 2025-052AF

PAYLOAD ACTIVE UNKNOWN

§ Identity

Operator
Country
ISRA
Launch date
2025-03-15
Launch site
AFWTR
Launch vehicle
Mass (kg)
RCS (m²)

Purposes: comms

External: N2YO · Heavens-Above · Gunter

§ Orbital elements

Epoch: 2026-05-25T03:17:35.724192Z

Period
94.07 min
Inclination
97.3969°
Eccentricity
0.0005047
Mean motion
15.30790295 rev/d
Perigee alt
470.0 km
Apogee alt
476.9 km
Semi-major
6,851.6 km
B*
4.8619e-4
RAAN
40.4213°
Arg perigee
206.9307°
Mean anomaly
153.1673°
Rev number
6,649

§ Raw data

TEVEL2-81 63239U 25052AF  26145.13721903  .00014408  00000+0  48619-3 0  99982 63239  97.3969  40.4213 0005047 206.9307 153.1673 15.30790295 66497

JSON: /api/v1/satellites/63239 · /tle

For live sub-satellite position, see the globe view (requires WebGL).

§ Visibility from observer

Set your observer location to see the next 7 days of passes ≥ 10°. The values pass through the URL so the page stays shareable.

No JS? Fill the form by hand. The geolocation button needs JavaScript.

§ Radio — SatNOGS DB

ModeDescriptionDownlinkUplink
BPSK Mode U - BPSK9k6 G3RUH 436.400 MHz
FM Mode V/U - FM Transponder - Beacon 436.400 MHz 145.970 MHz

2 transmitters · refreshed weekly from db.satnogs.org